Location: Cottbus
(51.7000°N, 14.3000°E)
Time: 04:35:17
(UTC+01:00)

ISS - Pass Details

Date: 01 February 2019
Orbit: 403 x 411 km, 51.6° (Epoch: 17 February)

Event Time Altitude Azimuth Distance (km) Brightness Sun altitude
Rises 18:55:18 0° 277° (W) 2,338 1.6 -19.3°
Reaches altitude 10° 18:57:23 10° 277° (W) 1,477 0.2 -19.6°
Enters shadow 19:00:40 82° 207° (SSW) 420 -3.9 -20.1°
